This is the latest recevied weather packets stored in our database for station/object KO4ZGL-13. If no packets are shown the sender has not sent any weather packets the latest 10 day(s).
| Time | Temp. | Humidity | Pressure | Rain* | Wind** | Luminosity | Snow |
|---|---|---|---|---|---|---|---|
| 1787609951 | 32.22° C | 65% | 1013.4 hPa | 0 mm | - | 62 W/m² | - |
| 1787609650 | 32.78° C | 72% | 1013.1 hPa | 0 mm | - | 82 W/m² | - |
| 1787609345 | 32.78° C | 69% | 1013.2 hPa | 0 mm | - | 65 W/m² | - |
| 1787609044 | 33.33° C | 69% | 1013.1 hPa | 0 mm | - | 89 W/m² | - |
| 1787608739 | 33.33° C | 68% | 1013.1 hPa | 0 mm | - | 92 W/m² | - |
| 1787608438 | 33.89° C | 68% | 1013.3 hPa | 0 mm | - | 203 W/m² | - |
| 1787608135 | 34.44° C | 65% | 1013.1 hPa | 0 mm | - | 186 W/m² | - |
| 1787607831 | 35° C | 58% | 1013.2 hPa | 0 mm | - | 262 W/m² | - |
| 1787607529 | 35° C | 62% | 1013.3 hPa | 0 mm | - | 285 W/m² | - |
| 1787607225 | 35° C | 66% | 1013.5 hPa | 0 mm | - | 280 W/m² | - |
| 1787606921 | 35° C | 65% | 1013.1 hPa | 0 mm | - | 305 W/m² | - |
| 1787606618 | 35° C | 64% | 1013.3 hPa | 0 mm | - | 312 W/m² | - |
| 1787606313 | 35.56° C | 60% | 1013.3 hPa | 0 mm | - | 329 W/m² | - |
| 1787606008 | 35° C | 61% | 1013.3 hPa | 0 mm | - | 345 W/m² | - |
| 1787605707 | 35.56° C | 58% | 1013.1 hPa | 0 mm | - | 358 W/m² | - |
| 1787605402 | 35.56° C | 59% | 1013 hPa | 0 mm | - | 356 W/m² | - |
| 1787605098 | 35° C | 62% | 1013.4 hPa | 0 mm | - | 386 W/m² | - |
| 1787604797 | 35.56° C | 63% | 1013.4 hPa | 0 mm | - | 418 W/m² | - |
| 1787604493 | 36.11° C | 60% | 1013.3 hPa | 0 mm | - | 404 W/m² | - |
| 1787604187 | 36.11° C | 58% | 1013.2 hPa | 0 mm | - | 429 W/m² | - |
| 1787603882 | 36.11° C | 59% | 1013.3 hPa | 0 mm | - | 458 W/m² | - |
| 1787603582 | 35.56° C | 59% | 1013.3 hPa | 0 mm | - | 461 W/m² | - |
| 1787603277 | 36.11° C | 58% | 1013.4 hPa | 0 mm | - | 463 W/m² | - |
| 1787602974 | 36.67° C | 57% | 1013.2 hPa | 0 mm | - | 478 W/m² | - |
| 1787602669 | 36.11° C | 58% | 1013.3 hPa | 0 mm | - | 494 W/m² | - |
* Rain latest hour (hover to see other rain measurements)
** Current wind speed in m/s (hover to see current wind gust speed)